Regional Weather Roundup
Issued by NWS

Home | Current Version | Previous Version | Text Only | Print | Product List | Glossary Off
Versions: 1 2 3 4 5 6 7 8 9 10 11 12 13 14 15 16 17 18 19 20 21 22 23 24 25 26 27 28 29 30 31 32 33 34 35 36 37 38 39 40 41 42 43 44 45 46 47 48 49 50

000
ASUS43 KMPX 182010
RWRMN
WEATHER ROUNDUP FOR MINNESOTA
NATIONAL WEATHER SERVICE TWIN CITIES/CHANHASSEN MN
200 PM CST THU DEC 18 2014


NOTE: "FAIR" INDICATES FEW OR NO CLOUDS BELOW 12,000 FEET WITH NO
SIGNIFICANT WEATHER AND/OR OBSTRUCTIONS TO VISIBILITY. N/A MEANS
CURRENT SKY AND/OR WEATHER CONDITIONS ARE NOT AVAILABLE.

MNZ060>063-068>070-182100-
   Twin Cities Metro

CITY           SKY/WX    TMP DP  RH WIND       PRES   REMARKS
TWIN CITIES    FLURRIES  20  15  81 SE3       30.26F
ST PAUL        CLOUDY    22  16  78 SE8       30.28F WCI  12
CRYSTAL        LGT SNOW  22  16  78 SE3       30.25F
BLAINE         FLURRIES  23  18  80 S3        30.25F
LAKEVILLE      LGT SNOW  19  16  86 CALM      30.25F
EDEN PRAIRIE   CLOUDY    22  15  75 CALM      30.25F
SOUTH ST PAUL  CLOUDY    22  16  76 S3        30.27S
LAKE ELMO      CLOUDY    23  19  86 S5        30.27S WCI  17
$$
MNZ001>005-007-008-013>017-022>024-027-028-182100-
   Northwest Minnesota

CITY           SKY/WX    TMP DP  RH WIND       PRES   REMARKS
BEMIDJI        FLURRIES  17  13  84 S8        30.21S WCI   6
HALLOCK        MOSUNNY   21  16  79 S16       30.19S WCI   7
ROSEAU         MOSUNNY   23  16  74 S10       30.19F WCI  12
WARROAD        PTSUNNY   21  16  79 S8        30.20F WCI  12
THIEF RVR FALL PTSUNNY   19  14  79 S12       30.20S WCI   7
CROOKSTON      CLOUDY    19  16  86 S14       30.21F WCI   6
FOSSTON        PTSUNNY   18  12  79 S9        30.20S WCI   6
DETROIT LAKES  PTSUNNY   19  16  86 S8        30.20F WCI   9
MOORHEAD       CLOUDY    19  18  93 SE12      30.21S WCI   7
PARK RAPIDS    CLOUDY    18  12  77 S9        30.20F WCI   7
MAHNOMEN       CLOUDY    18  12  77 S10       30.20S WCI   7
$$
MNZ006-009>011-018-025>026-182100-
   North Central Minnesota

CITY           SKY/WX    TMP DP  RH WIND       PRES   REMARKS
BAUDETTE       SUNNY     21  12  68 S12       30.20F WCI   9
FLAG ISLAND    SUNNY     16  10  79 S7        30.21F WCI   6
INTL FALLS     CLOUDY    19  13  77 VRB3      30.24F
WASKISH        FLURRIES  19  16  86 CALM      30.22F
BIG FORK       FLURRIES  21  18  86 S8        30.22F WCI  12
LONGVILLE      CLOUDY    19  16  86 S7        30.22F WCI  10
GRAND RAPIDS   CLOUDY    19  16  86 S5        30.21F WCI  13
CRANE LAKE     CLOUDY    19  16  86 CALM      30.27S
ORR            CLOUDY    19  14  79 CALM      30.21S
COOK           CLOUDY    19  18  93 CALM      30.23F
WALKER         FLURRIES  17  13  82 S8        30.21F WCI   7
$$
MNZ012-019>021-037-182100-
   Northeast Minnesota

CITY           SKY/WX    TMP DP  RH WIND       PRES   REMARKS
DULUTH         CLOUDY    25  18  74 SE9       30.21F WCI  15
ELY            CLOUDY    21  18  86 CALM      30.23S
HIBBING        CLOUDY    22  17  81 CALM      30.22F
EVELETH        CLOUDY    23  19  86 CALM      30.22F
DULUTH HARBOR  CLOUDY    28  21  74 CALM      30.27F
TWO HARBORS    CLOUDY    30  23  74 E7        30.21F WCI  23
SILVER BAY     CLOUDY    27  21  80 NE5       30.23S WCI  21
GRAND MARAIS     N/A     26  16  65 SW3       30.30F
G MARAIS ARPRT SUNNY     19  10  68 CALM      30.22S
$$
MNZ029>031-032-039>041-046>048-054>057-064-182100-
   West Central Minnesota

CITY           SKY/WX    TMP DP  RH WIND       PRES   REMARKS
FERGUS FALLS   CLOUDY    18  12  79 SE12      30.24F WCI   5
WHEATON        CLOUDY    18  12  79 SE14      30.22S WCI   4
MORRIS         PTSUNNY   19  16  86 SE10      30.20F WCI   8
ALEXANDRIA     CLOUDY    18  12  77 S9        30.21F WCI   7
ELBOW LAKE     CLOUDY    17  14  86 SE10      30.20F WCI   5
WADENA         CLOUDY    18  12  79 NW6       30.20F WCI   9
GLENWOOD       CLOUDY    18  14  86 SE7       30.21F WCI   8
APPLETON       CLOUDY    19  16  86 CALM      30.21F
BENSON         CLOUDY    19  14  79 S7        30.22F WCI  10
ORTONVILLE     CLOUDY    18  14  86 SE10      30.19F WCI   6
MADISON        MOSUNNY   23  19  86 SE5       30.21F WCI  17
WILLMAR        FAIR      19  12  73 SE8       30.23F WCI   9
$$
MNZ033>034-036-042>043-049>051-058-059-182100-
   Central Minnesota

CITY           SKY/WX    TMP DP  RH WIND       PRES   REMARKS
ST CLOUD       CLOUDY    21  14  74 SE6       30.25S HAZE    WCI  13
SAUK CENTRE    FAIR      19  12  76 SE7       30.22F WCI   9
PAYNESVILLE    MOSUNNY   17  12  81 SE3       30.24S
AITKIN         CLOUDY    25  18  74 S6        30.21F WCI  18
PINE RIVER     CLOUDY    18  16  93 S7        30.25F WCI   8
BRAINERD       CLOUDY    20  15  81 S6        30.23F WCI  12
STAPLES        FLURRIES  18  12  79 SE3       30.22F
LONG PRAIRIE   PTSUNNY   19  12  73 SE7       30.22F WCI  10
LITTLE FALLS   FLURRIES  19  14  79 SE5       30.25S WCI  13
LITCHFIELD     MOSUNNY   21  16  79 E5        30.24F WCI  15
BUFFALO        LGT SNOW  20  14  78 CALM      30.26F
MAPLE LAKE     FLURRIES  21  17  81 CALM      30.25F
$$
MNZ037-044-045-052-053-182100-
   East Central Minnesota

CITY           SKY/WX    TMP DP  RH WIND       PRES   REMARKS
PRINCETON      FLURRIES  21  16  79 CALM      30.25F
MORA           CLOUDY    19  16  86 S7        30.27S WCI  10
CAMBRIDGE      FLURRIES  21  16  79 CALM      30.25S
RUSH CITY      CLOUDY    21  18  86 CALM      30.26F
MOOSE LAKE     CLOUDY    25  19  80 CALM      30.22F
HINCKLEY       CLOUDY    23  19  86 SW5       30.25F WCI  17
CLOQUET        CLOUDY    25  19  80 SE3       30.22S
MCGREGOR       CLOUDY    23  21  93 SE6       30.23F WCI  16
$$
MNZ071>073-080-081-089-090-097-098-182100-
   Southwest Minnesota

CITY           SKY/WX    TMP DP  RH WIND       PRES   REMARKS
MONTEVIDEO     CLOUDY    19  18  93 S5        30.23S WCI  13
GRANITE FALLS  CLOUDY    20  16  85 E7        30.23F WCI  11
CANBY          CLOUDY    23  20  90 E6        30.20F WCI  15
MARSHALL       CLOUDY    23  18  80 SE3       30.20F
REDWOOD FALLS  CLOUDY    20  15  81 E6        30.23F WCI  12
OLIVIA         CLOUDY    21  18  86 SE5       30.23F WCI  15
PIPESTONE      CLOUDY    23  21  93 CALM      30.15F
WINDOM         CLOUDY    21  18  86 CALM      30.19F
WORTHINGTON    CLOUDY    25  19  80 SW6       30.18S WCI  18
JACKSON        CLOUDY    25  19  80 SE5       30.19F WCI  19
TRACY          CLOUDY    24  20  85 CALM      30.20F
SLAYTON        CLOUDY    24  21  89 CALM      30.18S
$$
MNZ065>067-074>077-082>085-091>093-182100-
   South Central Minnesota

CITY           SKY/WX    TMP DP  RH WIND       PRES   REMARKS
MANKATO        SUNNY     21  12  68 E5        30.24S WCI  15
NEW ULM        CLOUDY    19  16  86 CALM      30.24S
ST JAMES       CLOUDY    23  18  80 SE3       30.24S
FAIRMONT       CLOUDY    21  16  79 CALM      30.21F
GLENCOE        PTSUNNY   22  16  79 E5        30.24S WCI  16
FARIBAULT      CLOUDY    21  16  79 CALM      30.24F
OWATONNA       MOSUNNY   19  12  73 CALM      30.23S
WASECA         MOSUNNY   23  16  74 CALM      30.24F
ALBERT LEA     MOSUNNY   23  16  74 CALM      30.22S
$$
MNZ078>079-086>088-094>096-182100-
   Southeast Minnesota

CITY           SKY/WX    TMP DP  RH WIND       PRES   REMARKS
ROCHESTER      CLOUDY    21  15  78 CALM      30.22F HAZE
RED WING       CLOUDY    23  18  80 CALM      30.26F
STANTON        CLOUDY    22  15  73 CALM      30.24F
DODGE CENTER   CLOUDY    19  16  86 CALM      30.22S
WINONA         CLOUDY    25  19  80 CALM      30.27F
AUSTIN         CLOUDY    21  16  79 CALM      30.22S
PRESTON        CLOUDY    20  16  82 CALM      30.23S
$$
ABBREVIATIONS USED IN REMARKS
   TC - TEMPERATURES IN CELSIUS
  WCI - WIND CHILL INDEX
   HX - HEAT INDEX
  VSB - VISIBILITY
$$


USA.gov is the U.S. government's official web portal to all federal, state and local government web resources and services.